Location: Glen Waverley
(37.8830°S, 145.1670°E)
Time: 11:18:35
(UTC+10:00)

ISS - Pass Details

Date: 18 August 2022
Orbit: 413 x 417 km, 51.6° (Epoch: 30 September)

Event Time Altitude Azimuth Distance (km) Brightness Sun altitude
Rises 18:41:41 0° 316° (NW) 2,356 0.9 -11.6°
Reaches altitude 10° 18:43:46 10° 318° (NW) 1,501 -0.2 -12.0°
Maximum altitude 18:47:07 70° 41° (NE) 454 -3.8 -12.6°
Enters shadow 18:49:17 21° 122° (ESE) 1,028 -2.3 -13.0°
